Wind_Speed
30 24 20 20 20 21 23 24 22 21 23 24 24 24 21 21 19 19 18 17 17 17 16 16 16 15 15 15 14 14 13 13 12 12 12 13 13 14 15 16 17 17 17 18
32 28 23 20 20 20 22 23 24 24 25 26 24 25 23 22 22 21 19 19 19 18 17 17 17 17 16 16 15 15 15 15 14 14 14 15 15 16 17 18 19 19 20 20
31 28 26 25 22 21 20 21 23 25 26 27 26 25 24 23 24 23 21 20 20 19 19 19 19 18 18 18 17 16 16 16 16 16 16 16 16 17 17 17 19 20 20 21
30 27 28 26 24 23 23 24 25 27 30 30 30 27 26 25 24 24 23 22 21 21 21 21 20 20 20 19 19 19 18 18 18 18 18 17 18 18 18 19 20 21 22 22
31 28 27 26 26 25 26 27 28 29 32 32 32 31 28 26 25 24 23 23 23 22 22 23 23 22 22 22 21 20 20 20 20 20 19 19 19 19 20 21 21 21 22 23
33 29 28 28 28 28 29 31 31 32 33 34 33 31 29 26 25 24 24 23 24 23 24 24 24 24 23 23 23 22 22 21 21 21 21 21 21 21 21 21 21 22 23 23
34 31 30 30 30 30 31 33 33 32 33 34 33 31 28 25 24 25 24 24 24 24 24 24 25 25 25 24 24 24 24 23 22 22 22 22 23 23 22 22 23 24 24 25
36 35 34 34 33 32 34 32 32 32 32 31 30 29 28 26 25 25 25 25 25 25 25 25 26 26 26 25 25 24 25 24 24 23 23 24 24 24 24 24 25 25 26 27
37 40 40 39 37 35 34 32 32 32 32 30 29 28 28 27 26 26 26 26 26 26 26 26 26 26 26 26 25 25 25 25 25 25 25 25 25 25 25 26 27 27 28 28
38 41 41 40 38 37 35 33 33 31 32 33 30 29 29 29 28 27 27 27 27 27 27 27 26 26 26 26 26 26 26 26 26 26 26 25 25 25 26 28 28 28 28 28
40 40 41 40 38 37 35 33 33 33 33 32 31 31 30 29 29 28 28 28 28 28 28 28 27 27 27 26 27 26 27 27 26 26 25 25 26 26 27 27 27 27 28 27
42 42 41 40 37 35 35 33 33 34 34 33 33 31 30 29 29 29 28 28 28 28 27 27 27 27 27 27 27 27 27 27 26 25 25 26 26 26 27 27 27 26 27 27
37 40 39 37 34 34 34 34 34 33 32 32 32 31 30 30 29 29 28 28 28 28 27 27 27 26 26 26 26 26 26 26 26 25 25 25 25 25 26 26 26 26 26 26
34 36 36 36 34 33 33 33 34 33 33 32 31 30 29 29 28 28 28 28 28 27 26 26 26 26 26 25 25 25 25 25 25 25 25 25 25 24 24 24 24 24 24 25
34 34 34 33 32 32 32 32 32 32 31 31 30 29 29 29 29 28 27 26 25 25 25 25 24 24 25 24 25 24 23 23 23 23 23 24 24 24 23 23 23 23 24 25
30 30 31 31 30 30 30 30 30 30 29 29 28 28 28 28 27 26 25 25 25 24 24 23 23 22 22 23 22 22 22 22 23 23 23 24 23 23 23 23 23 24 25 25
28 29 29 29 28 28 28 28 28 28 27 26 26 26 25 25 25 24 24 24 23 23 22 22 21 21 21 21 21 21 21 21 21 21 21 21 21 22 22 22 23 24 25 25
27 27 27 26 26 26 26 26 26 25 25 25 24 24 24 23 23 23 22 22 22 21 20 20 20 19 19 19 19 19 19 19 19 20 20 21 21 22 23 23 24 25 26 26
24 25 26 26 25 25 25 25 25 25 24 24 24 23 23 22 21 20 20 20 20 19 19 18 17 16 16 16 17 17 18 18 18 19 20 21 21 22 24 24 25 25 26 26
24 24 24 24 23 22 22 23 22 22 21 22 21 20 20 19 18 18 18 18 18 17 17 16 15 15 15 15 15 16 16 17 17 18 20 20 21 22 23 23 24 25 26 27
24 23 22 22 22 22 21 21 20 20 20 19 19 19 18 17 17 16 16 16 15 15 15 15 15 14 14 14 15 15 16 16 17 18 19 20 21 22 23 25 25 26 27 28
22 22 20 20 20 20 19 19 19 18 18 18 17 17 16 16 16 15 15 14 14 13 13 12 12 13 13 14 14 15 16 16 17 18 19 21 23 24 25 26 27 28 28 28
20 20 19 18 18 18 18 18 18 17 16 16 15 15 15 14 14 13 12 11 11 10 10 10 11 12 12 13 13 14 16 17 18 20 21 23 24 25 26 27 27 27 27 28
18 18 18 18 17 17 17 17 16 15 15 14 14 13 13 12 11 10 10 9 9 9 9 10 11 11 12 13 15 16 18 19 21 22 23 24 25 25 25 25 26 26 26 26
16 17 17 16 16 15 15 15 14 13 12 12 11 11 10 10 9 8 8 8 8 9 9 10 11 12 13 15 16 17 19 20 21 22 23 23 24 24 24 24 25 25 25 25
15 16 16 15 14 13 13 13 12 11 11 11 9 8 8 8 7 7 7 7 8 9 10 11 12 13 15 16 17 19 20 21 22 23 23 24 24 24 24 24 24 24 24 24
14 15 15 14 13 12 12 11 11 10 9 8 8 7 7 6 6 7 7 8 10 11 12 13 14 15 17 18 19 20 21 22 22 23 23 23 23 24 24 24 23 23 23 24
Wind_Direction
209 212 224 242 242 233 226 224 231 236 243 249 253 257 261 270 273 274 274 272 272 275 276 279 284 288 291 294 294 295 296 296 294 291 288 282 279 273 268 266 264 266 268 267
213 210 212 225 232 232 229 225 226 233 241 244 246 254 257 265 272 273 271 271 273 275 274 276 279 283 287 291 292 293 294 293 291 290 288 285 280 275 273 271 270 270 270 270
215 214 215 221 221 225 228 230 230 234 241 248 247 252 258 263 268 271 273 273 273 273 274 276 277 280 283 286 288 289 292 293 290 288 287 285 281 278 277 277 275 274 274 272
213 212 221 224 223 224 226 228 231 235 239 245 249 254 258 262 266 269 271 271 271 271 272 273 275 277 279 283 286 287 287 289 288 287 287 285 283 281 280 279 279 276 276 276
212 215 222 224 223 221 225 226 229 234 240 244 249 254 256 258 263 266 267 268 269 270 271 271 273 274 277 278 282 283 283 284 285 286 286 285 284 283 281 279 279 277 276 276
213 213 221 224 225 223 228 233 234 235 242 246 249 253 257 258 261 264 266 267 269 271 271 271 271 273 275 276 279 280 281 282 284 285 285 283 283 283 282 280 280 278 277 277
215 216 224 222 221 221 225 232 238 240 243 247 249 254 257 258 259 263 265 267 268 270 270 271 271 273 273 275 278 279 281 282 282 283 282 281 281 281 280 279 281 281 280 281
217 217 225 226 225 224 226 229 237 242 246 246 248 253 257 257 259 263 265 266 267 268 270 271 271 273 273 275 277 278 280 282 283 282 281 282 282 281 280 280 282 283 283 284
221 220 224 228 230 232 234 234 237 241 245 249 248 251 256 258 261 263 266 266 266 267 269 272 272 273 274 275 277 279 280 283 283 283 282 282 281 281 282 282 283 284 284 285
221 224 226 228 230 233 237 240 242 245 249 252 253 254 256 260 262 265 266 266 267 268 270 271 273 274 275 277 278 278 280 281 282 282 281 281 283 283 284 284 284 284 284 282
222 226 231 232 233 236 239 241 245 247 251 253 254 255 256 258 261 264 266 267 268 270 272 271 271 272 274 276 279 279 279 280 280 280 280 282 283 283 284 285 285 285 284 283
225 227 230 233 234 236 240 243 246 248 251 253 255 258 259 259 261 263 265 267 268 270 271 272 273 272 273 275 278 278 278 278 278 279 281 282 283 283 283 283 285 287 287 286
228 229 232 235 235 237 241 245 247 249 252 254 256 256 256 258 260 262 264 266 268 270 270 272 272 272 274 276 277 278 278 277 277 279 280 281 282 282 283 283 285 287 287 287
228 230 234 237 238 240 242 245 248 250 251 252 252 252 254 257 259 262 263 265 267 269 270 272 272 272 274 276 276 276 277 277 278 279 280 280 281 282 285 288 289 288 288 289
229 231 235 236 239 241 243 245 247 247 248 249 250 252 255 257 260 261 263 264 266 267 269 271 272 272 273 275 276 276 276 276 278 281 280 281 282 283 285 287 288 290 291 291
228 233 234 236 238 240 241 242 243 245 247 249 250 252 254 256 258 260 261 263 266 268 269 270 272 273 275 275 274 276 277 278 281 283 283 284 283 282 284 286 289 290 290 291
228 231 233 233 236 238 239 240 241 243 245 247 248 250 253 255 256 258 260 262 265 267 269 270 272 273 273 273 273 275 277 279 282 283 283 284 284 285 287 290 292 294 294 295
227 229 230 232 234 237 237 237 239 240 241 244 247 249 252 254 256 258 259 262 263 265 267 269 271 271 272 273 274 275 277 279 283 285 284 284 285 288 292 293 293 294 294 294
227 228 230 231 232 234 234 235 237 239 241 243 246 249 251 253 255 257 258 260 261 263 266 268 268 270 272 272 275 278 279 280 282 286 288 289 290 291 292 293 294 295 295 296
226 228 227 226 229 232 234 235 236 237 238 242 244 245 246 248 252 255 257 258 258 260 262 264 265 268 271 274 277 279 281 282 284 287 292 294 293 293 294 295 297 298 299 299
224 224 224 225 226 228 230 230 231 232 234 237 236 235 238 243 248 250 251 253 254 258 260 261 262 266 271 276 279 282 285 289 291 293 294 296 298 299 300 301 301 300 300 300
217 219 221 221 222 224 225 226 227 227 228 229 231 234 238 242 245 246 246 248 253 256 258 261 264 270 275 280 286 289 291 294 296 298 299 300 301 302 302 302 302 302 301 301
213 214 214 215 217 218 219 219 219 221 223 225 229 232 236 239 240 240 241 247 252 253 258 266 272 276 280 285 290 294 298 300 301 302 303 303 303 303 303 303 302 303 303 304
206 208 208 209 211 212 213 214 215 218 219 221 224 227 231 234 235 237 242 248 253 259 265 271 279 283 286 290 293 296 300 302 304 305 305 304 304 304 304 304 304 305 306 307
192 193 194 196 201 204 205 207 210 210 211 216 220 223 226 227 233 241 244 248 259 267 272 277 283 288 292 295 298 301 303 304 305 306 306 306 307 307 307 307 307 308 309 310
182 181 183 187 190 192 193 194 198 202 208 211 213 216 223 228 229 235 247 258 269 277 282 285 289 294 297 300 302 304 305 306 307 308 308 308 308 308 308 308 308 310 311 311
173 175 177 178 178 179 184 188 193 197 201 201 205 207 210 219 232 246 260 272 281 285 287 290 294 297 299 301 303 304 305 305 307 308 309 310 310 309 309 309 310 310 310 311
Height
5830 5835 5839 5841 5843 5846 5849 5852 5855 5856 5856 5855 5854 5855 5856 5856 5857 5857 5857 5857 5858 5858 5858 5858 5858 5857 5857 5856 5855 5855 5854 5853 5853 5852 5852 5852 5852 5852 5852 5853 5853 5854 5855 5855
5823 5828 5832 5836 5838 5841 5844 5847 5849 5850 5850 5848 5847 5850 5851 5852 5853 5853 5853 5854 5854 5855 5855 5855 5855 5854 5854 5853 5852 5852 5851 5850 5850 5849 5849 5849 5849 5849 5849 5849 5850 5850 5850 5850
5817 5823 5826 5830 5833 5837 5839 5842 5844 5844 5845 5843 5843 5845 5846 5848 5849 5849 5849 5850 5850 5850 5851 5851 5851 5851 5850 5850 5849 5849 5848 5848 5847 5846 5845 5845 5845 5845 5845 5845 5846 5846 5846 5845
5811 5817 5820 5826 5829 5832 5834 5836 5838 5838 5838 5838 5838 5840 5842 5843 5844 5844 5845 5845 5846 5846 5846 5847 5847 5847 5846 5846 5846 5845 5844 5844 5843 5842 5842 5841 5841 5841 5841 5841 5841 5841 5840 5840
5805 5810 5814 5819 5822 5825 5827 5829 5831 5831 5830 5831 5833 5834 5835 5837 5838 5839 5840 5840 5841 5841 5841 5842 5842 5842 5842 5841 5841 5841 5840 5840 5839 5838 5838 5837 5837 5836 5836 5836 5835 5835 5835 5835
5798 5803 5808 5812 5814 5817 5821 5822 5823 5824 5825 5826 5827 5829 5830 5832 5833 5834 5835 5835 5835 5836 5836 5836 5836 5837 5837 5836 5836 5836 5835 5835 5834 5833 5833 5833 5832 5832 5831 5831 5830 5829 5829 5829
5790 5796 5799 5801 5805 5809 5814 5814 5816 5817 5818 5820 5821 5823 5824 5825 5828 5829 5829 5830 5830 5830 5831 5831 5831 5831 5831 5831 5831 5830 5830 5829 5829 5828 5827 5827 5827 5826 5826 5825 5825 5824 5823 5823
5784 5789 5792 5793 5797 5800 5802 5804 5807 5810 5811 5813 5815 5817 5818 5820 5822 5823 5823 5824 5824 5825 5825 5825 5825 5825 5825 5825 5825 5824 5824 5823 5823 5822 5821 5821 5820 5820 5819 5819 5819 5818 5817 5816
5775 5780 5782 5785 5788 5792 5795 5797 5800 5803 5804 5806 5807 5809 5812 5813 5815 5816 5817 5817 5818 5819 5819 5819 5819 5819 5819 5819 5819 5818 5818 5818 5817 5816 5816 5815 5814 5814 5813 5813 5812 5812 5810 5809
5767 5770 5774 5778 5781 5785 5788 5792 5794 5796 5798 5800 5801 5803 5805 5807 5808 5809 5810 5811 5812 5812 5812 5813 5813 5812 5813 5813 5812 5812 5812 5811 5811 5810 5809 5809 5808 5808 5807 5806 5805 5804 5802 5801
5759 5763 5767 5771 5775 5778 5782 5785 5787 5790 5791 5793 5795 5796 5799 5801 5802 5803 5804 5805 5805 5806 5806 5806 5806 5806 5806 5806 5806 5805 5805 5805 5804 5803 5803 5802 5802 5801 5800 5799 5797 5796 5795 5793
5750 5755 5759 5763 5767 5772 5775 5778 5780 5783 5785 5787 5789 5790 5792 5794 5795 5796 5797 5798 5798 5799 5799 5799 5799 5799 5799 5799 5799 5799 5798 5798 5797 5797 5796 5796 5795 5794 5792 5792 5790 5789 5787 5786
5742 5747 5752 5756 5760 5764 5768 5771 5773 5775 5777 5780 5782 5784 5785 5787 5788 5789 5790 5791 5792 5792 5792 5792 5792 5792 5792 5792 5792 5791 5791 5790 5790 5790 5789 5789 5788 5787 5786 5785 5783 5782 5780 5779
5736 5741 5745 5749 5753 5758 5761 5764 5766 5768 5771 5773 5775 5777 5779 5781 5782 5783 5784 5784 5785 5785 5786 5786 5786 5786 5785 5785 5785 5784 5784 5784 5783 5783 5782 5782 5781 5780 5779 5778 5777 5775 5774 5772
5731 5735 5738 5743 5747 5750 5754 5756 5759 5761 5764 5766 5769 5771 5772 5774 5775 5776 5777 5778 5779 5779 5780 5780 5780 5780 5779 5779 5778 5778 5778 5777 5777 5776 5776 5775 5774 5773 5772 5771 5770 5769 5767 5766
5724 5728 5732 5736 5740 5743 5747 5750 5752 5754 5757 5760 5762 5764 5766 5767 5768 5770 5771 5772 5772 5773 5773 5773 5773 5773 5773 5773 5772 5772 5772 5771 5771 5770 5770 5769 5768 5767 5766 5765 5764 5763 5761 5759
5719 5723 5726 5730 5733 5737 5740 5743 5745 5748 5751 5753 5755 5757 5759 5761 5762 5763 5765 5766 5766 5767 5767 5767 5767 5767 5767 5767 5767 5766 5766 5765 5765 5764 5764 5763 5762 5761 5760 5759 5757 5756 5754 5752
5713 5717 5721 5724 5727 5730 5733 5736 5739 5742 5745 5747 5749 5752 5753 5755 5756 5757 5759 5760 5760 5761 5761 5761 5762 5762 5761 5761 5761 5761 5760 5760 5759 5759 5757 5757 5756 5755 5754 5752 5751 5749 5747 5745
5708 5711 5715 5718 5721 5725 5727 5730 5733 5736 5739 5742 5744 5746 5748 5749 5750 5752 5753 5754 5755 5756 5756 5756 5757 5757 5756 5756 5756 5756 5755 5755 5755 5754 5753 5751 5750 5749 5747 5746 5744 5742 5740 5738
5703 5706 5709 5712 5716 5719 5722 5725 5728 5731 5734 5736 5738 5740 5742 5744 5746 5747 5749 5749 5750 5751 5751 5752 5752 5752 5752 5752 5752 5751 5751 5750 5750 5749 5748 5746 5745 5743 5741 5739 5737 5735 5732 5730
5698 5701 5704 5708 5711 5715 5718 5721 5724 5727 5730 5732 5734 5736 5738 5740 5742 5743 5744 5745 5746 5747 5747 5748 5748 5748 5748 5748 5748 5747 5746 5746 5745 5744 5742 5741 5739 5737 5735 5732 5730 5728 5725 5722
5694 5698 5701 5704 5708 5711 5715 5718 5721 5724 5726 5728 5731 5733 5735 5736 5738 5739 5740 5741 5742 5743 5743 5744 5744 5744 5744 5744 5743 5743 5742 5741 5740 5738 5737 5735 5733 5730 5728 5725 5723 5720 5717 5714
5691 5694 5697 5701 5704 5708 5712 5715 5718 5721 5723 5726 5728 5730 5731 5733 5734 5736 5737 5738 5739 5739 5740 5740 5740 5740 5740 5740 5739 5738 5737 5736 5734 5733 5731 5729 5726 5724 5721 5718 5715 5712 5709 5706
5688 5692 5695 5699 5703 5706 5709 5712 5715 5718 5720 5723 5725 5727 5729 5730 5732 5733 5734 5735 5736 5736 5737 5737 5737 5737 5736 5736 5735 5734 5732 5730 5729 5726 5724 5722 5719 5717 5714 5711 5708 5705 5702 5699
5687 5690 5694 5698 5701 5704 5707 5710 5713 5716 5718 5721 5723 5725 5726 5728 5730 5731 5732 5732 5733 5734 5734 5734 5734 5733 5733 5732 5730 5729 5727 5725 5723 5720 5718 5715 5713 5710 5707 5704 5701 5698 5695 5692
5687 5691 5694 5698 5701 5704 5707 5710 5712 5715 5717 5720 5722 5723 5725 5726 5728 5729 5730 5730 5731 5731 5731 5730 5730 5729 5728 5727 5725 5723 5721 5719 5717 5714 5712 5709 5706 5703 5701 5698 5695 5692 5689 5686
5688 5691 5694 5698 5701 5704 5707 5709 5712 5714 5716 5718 5720 5722 5724 5725 5726 5727 5728 5728 5728 5728 5727 5727 5726 5725 5723 5722 5720 5718 5715 5713 5711 5708 5705 5703 5700 5697 5694 5692 5689 5686 5683 5680